Flag for France Weather past 2 weeks in Gustavia, Saint Barthélemy, France

Now
86 °F

Passing clouds.


Feels Like: 95 °F
Forecast: 83 / 86 °F
Wind: 8 mph from East

Location: Juliana Airport - Saint Maarten

Current Time: Oct 1, 2014 at 8:27:00 AM

Latest Report: Oct 1, 2014 at 8:00 AM


Visibility: N/A

Pressure: 30.04 "Hg

Humidity: 70%

Dew point: 75 °F

Location of GustaviaLocation

Historic Weather in Gustavia — Graph

°F

Gustavia temperature yesterday

Maximum temperature yesterday: 88 °F (at 11:00 AM)
Minimum temperature yesterday: 82 °F (at 12:00 AM)
Average temperature yesterday: 85 °F

Past Weeks' High & Low Weather Summary

 TemperatureHumidityPressure
High90 °F (Sep 17, 12:00 PM)89% (Sep 27, 5:00 AM)30.04 "Hg (Sep 27, 5:00 AM)
Low79 °F (Sep 24, 10:00 AM)52% (Sep 17, 1:00 PM)29.83 "Hg (Sep 26, 4:00 AM)
Average84 °F74%29.95 "Hg
* Reported Sep 16 7:00 AM — Oct 1 7:00 AM, Gustavia, Weather by CustomWeather, © 2014

Note: Actual official high and low records may vary slightly from our data, if they occured in-between our weather recording intervals... More about our weather records

Advertising

Gustavia weather history for previous 24 hours

 ConditionsComfort  
Time TempWeatherWind HumidityBarometerVisibility
7:00 AM
Oct 1
82 °FPassing clouds.7 mph79%30.01 "HgN/A
6:00 AM82 °FPassing clouds.6 mph74%30.01 "HgN/A
5:00 AM82 °FPassing clouds.7 mph79%29.98 "HgN/A
3:00 AM82 °FPassing clouds.9 mph74%29.98 "HgN/A
2:00 AM82 °FPassing clouds.9 mph79%29.98 "HgN/A
1:00 AM82 °FPassing clouds.8 mph79%29.98 "HgN/A
12:00 AM84 °FPassing clouds.9 mph74%30.01 "HgN/A
11:00 PM
Sep 30
84 °FPassing clouds.9 mph79%30.01 "HgN/A
10:00 PM84 °FPassing clouds.7 mph79%30.01 "HgN/A
9:00 PM84 °FPassing clouds.7 mph74%30.01 "HgN/A
8:00 PM84 °FPassing clouds.7 mph74%30.01 "HgN/A
7:00 PM84 °FPassing clouds.7 mph74%29.98 "HgN/A
6:00 PM84 °FPassing clouds.7 mph74%29.98 "HgN/A
5:00 PM86 °FPassing clouds.7 mph70%29.98 "HgN/A
4:00 PM86 °FPassing clouds.8 mph70%29.95 "HgN/A
3:00 PM88 °FPassing clouds.10 mph66%29.95 "HgN/A
2:00 PMN/A12 mphN/AN/AN/A
1:00 PM86 °FPassing clouds.10 mph70%29.98 "HgN/A
12:00 PM88 °FPassing clouds.10 mph66%30.01 "HgN/A
11:00 AM88 °FPassing clouds.10 mph66%30.01 "HgN/A
10:00 AM86 °FPassing clouds.10 mph75%30.04 "HgN/A
9:00 AM86 °FPassing clouds.10 mph70%30.01 "HgN/A
8:00 AM84 °FPassing clouds.8 mph79%30.01 "HgN/A
Weather by CustomWeather, © 2014

See weather overviewHow to use our weather pages